Wind_Speed
39 39 38 37 36 36 36 35 34 34 35 35 35 35 35 34 32 32 31 30 30 29 28 28 27 25 24 22 22 24 25 22 19 18 18 18 17 18 20 20 18 16
40 39 38 37 36 36 36 36 36 36 37 36 36 36 36 35 34 34 33 32 31 30 29 30 29 27 26 24 22 24 26 24 21 20 20 20 20 19 21 21 19 17
40 39 38 37 37 37 37 37 37 38 38 37 37 37 36 36 35 35 34 33 33 30 30 32 31 29 28 25 23 24 26 26 23 22 22 22 21 21 21 21 20 18
41 41 39 38 38 38 37 37 38 38 38 37 37 37 37 37 36 35 35 35 34 32 31 32 32 31 29 27 25 24 25 25 24 24 24 24 22 21 22 22 21 20
43 42 40 39 38 37 37 37 39 39 38 37 37 38 38 37 36 36 36 36 35 34 33 33 33 32 31 30 28 26 25 25 25 26 26 25 23 22 22 22 23 22
43 42 41 39 38 37 37 39 40 40 39 38 38 38 38 38 37 37 38 38 37 36 35 35 35 34 33 32 30 28 27 26 27 28 28 27 26 24 23 23 25 25
43 42 41 39 39 38 38 40 40 40 40 39 38 39 39 39 38 38 39 39 39 38 37 37 37 37 35 35 33 31 30 29 28 29 29 29 28 27 26 26 27 27
44 43 41 39 39 38 39 40 40 40 40 39 39 40 40 40 39 39 39 40 40 40 39 38 38 38 37 37 36 34 33 32 31 31 31 30 30 30 30 29 29 28
44 42 40 40 40 39 40 41 40 40 40 40 40 41 41 41 40 39 39 40 41 41 40 40 39 39 39 39 38 36 35 35 34 34 33 33 33 33 32 30 30 30
43 42 40 40 40 40 41 42 40 39 39 40 41 40 41 41 40 40 40 40 41 41 41 41 40 40 40 40 40 39 38 37 36 36 36 36 36 35 33 31 30 30
43 41 41 41 42 42 42 42 41 39 40 40 41 40 41 41 40 40 41 42 42 42 42 42 41 41 41 41 41 40 39 38 37 37 36 37 37 35 32 31 31 30
42 42 42 42 43 43 43 42 41 40 40 41 41 41 40 40 41 41 42 43 43 42 42 42 42 42 42 42 41 40 39 38 37 37 37 37 36 34 32 32 31 30
42 43 44 44 44 45 44 42 42 42 41 41 42 41 40 40 41 42 43 43 42 41 41 42 42 42 41 41 39 38 38 38 38 38 37 36 34 33 32 32 31 30
44 45 45 45 45 44 43 42 42 42 42 42 41 40 41 41 42 42 42 41 41 41 40 40 40 40 40 39 38 38 38 39 40 39 38 35 33 33 32 31 31 30
44 44 44 44 44 43 43 42 42 42 42 41 40 41 41 41 41 40 39 39 39 39 38 38 38 39 40 39 39 39 39 39 40 40 38 35 33 32 31 30 30 30
43 43 42 43 43 43 43 43 42 42 41 40 40 41 41 40 38 37 37 37 37 37 37 37 38 39 40 41 42 41 40 38 39 40 39 35 32 31 29 29 29 28
42 42 42 42 43 44 43 43 43 42 41 40 40 40 39 38 36 36 37 37 37 37 37 38 40 40 41 42 42 41 39 38 39 40 39 36 32 31 30 29 27 26
42 42 42 42 43 43 43 43 42 41 40 40 39 38 37 36 35 36 37 37 37 38 38 39 41 42 43 42 41 40 39 39 40 40 38 35 32 31 31 30 27 25
43 42 42 43 43 44 43 41 40 40 40 39 38 37 36 35 35 36 36 36 38 38 39 40 41 41 41 40 39 40 40 41 40 37 35 34 32 32 32 30 28 26
42 42 43 43 43 42 40 39 39 40 40 38 36 35 34 34 35 36 36 37 38 39 39 40 40 39 38 38 39 39 39 41 39 35 34 34 32 32 32 30 29 28
42 42 43 42 41 40 38 38 39 39 37 35 34 34 35 35 35 36 37 38 38 38 37 37 37 36 35 36 37 37 37 39 38 34 32 32 31 32 33 32 31 29
42 42 41 40 39 38 37 38 38 37 36 34 33 34 35 35 36 37 38 38 37 36 35 34 33 33 32 33 33 34 36 38 36 32 30 31 31 32 33 33 31 30
43 42 40 39 38 37 37 38 37 36 35 34 34 34 35 36 37 38 38 37 36 35 34 32 30 29 29 29 30 31 34 36 35 32 30 31 32 32 33 32 31 31
43 42 40 38 38 38 37 37 36 35 35 36 36 36 36 37 37 35 34 35 36 36 35 32 29 27 26 25 27 29 33 36 36 32 29 29 29 30 31 31 30 30
42 41 40 38 38 38 37 36 36 36 36 37 37 36 35 35 34 33 32 33 34 34 32 29 26 24 23 24 25 28 32 34 34 32 29 28 28 29 30 31 29 26
41 40 40 39 38 37 36 37 36 35 36 36 35 34 33 33 33 33 31 30 29 29 27 25 24 23 23 24 25 27 30 33 33 31 29 28 28 29 29 27 25 23
Wind_Direction
207 207 207 207 207 208 208 206 205 206 208 209 209 210 210 209 207 205 205 207 210 212 212 210 206 207 210 210 211 214 215 214 212 212 210 207 207 203 200 201 204 205
209 208 208 208 209 210 210 208 207 207 210 211 211 212 211 209 207 206 207 207 209 213 212 210 208 208 211 212 211 212 214 214 212 213 211 210 210 208 205 206 207 207
210 210 209 209 209 210 210 209 209 210 212 212 212 212 210 208 207 207 208 207 210 213 211 209 208 208 212 213 209 208 213 214 213 213 213 214 215 213 210 209 210 212
211 211 211 210 210 210 209 208 209 211 211 211 211 211 209 208 206 207 208 208 211 212 209 207 208 208 210 213 211 211 213 214 214 213 214 217 219 219 216 215 216 218
210 212 212 211 211 210 209 208 210 210 209 210 210 209 208 207 206 206 207 208 211 212 209 206 207 208 210 213 214 214 213 212 212 212 215 218 219 219 219 219 219 222
210 212 212 212 212 211 210 210 211 210 209 209 209 208 208 208 208 208 209 209 210 211 210 208 209 210 211 212 214 215 213 212 211 211 215 219 219 219 220 221 223 225
208 210 211 212 212 212 212 213 213 211 210 210 209 209 209 209 210 211 211 210 210 210 211 211 211 211 212 213 213 214 214 214 212 212 215 218 219 220 221 223 226 227
206 208 209 210 211 212 213 214 214 213 211 210 210 210 210 211 212 212 212 211 210 211 211 211 212 212 212 212 213 214 215 215 215 214 215 216 218 220 221 223 227 228
204 206 207 209 210 212 213 215 215 214 212 210 210 211 211 212 213 212 211 210 211 211 212 212 212 211 211 212 214 215 216 216 217 217 217 217 218 221 221 221 225 229
202 204 205 207 210 211 213 215 215 214 212 210 210 211 212 213 213 212 211 211 212 212 213 213 212 211 211 212 214 216 217 218 219 220 220 221 223 223 221 220 224 228
200 202 204 207 209 212 214 215 214 214 213 211 211 211 212 213 212 212 212 212 213 213 213 213 213 213 213 213 214 216 218 219 220 221 223 225 227 226 222 221 225 229
199 201 203 206 209 212 214 214 214 214 213 212 212 212 212 212 212 212 213 213 214 214 214 214 215 215 215 215 215 215 216 218 221 224 227 229 228 227 226 226 227 230
199 201 203 206 209 211 213 213 213 213 214 213 213 212 211 212 212 213 214 214 214 214 215 215 215 216 217 216 215 214 213 215 220 225 229 229 228 227 228 229 229 230
201 202 204 206 209 211 212 213 213 214 214 214 213 212 212 212 213 213 214 214 215 215 215 216 216 216 216 216 215 214 214 214 218 224 228 228 227 228 228 228 228 230
202 203 204 206 208 210 212 213 213 214 215 214 213 213 213 214 214 214 214 214 215 216 216 216 216 217 217 216 215 214 214 215 217 222 226 226 224 225 227 228 228 229
202 203 204 205 207 209 211 212 213 214 214 214 214 214 214 214 214 214 214 214 215 216 216 217 218 219 219 219 219 216 214 214 217 222 225 226 222 220 223 227 227 228
202 203 204 205 207 209 210 211 212 213 214 214 214 214 214 213 213 213 214 215 216 217 217 218 220 221 222 222 221 218 215 215 220 223 224 224 220 217 219 223 223 224
202 203 204 206 207 208 210 211 211 212 213 213 213 213 213 211 211 212 213 215 216 218 219 220 222 224 225 223 221 218 218 221 223 223 222 222 218 215 218 220 218 216
202 203 204 206 207 208 209 209 209 211 213 213 212 212 211 210 210 211 213 214 216 218 220 222 225 226 225 223 221 221 222 224 222 221 221 221 216 214 217 217 213 209
202 203 205 207 207 207 207 207 209 211 213 212 211 211 210 209 210 211 213 215 216 218 220 223 225 225 224 224 223 223 225 224 221 219 221 221 215 212 215 215 211 208
202 203 205 206 207 206 205 206 208 210 211 210 209 209 209 210 211 212 214 217 218 219 220 221 223 224 224 224 224 225 226 224 220 217 218 218 213 212 215 214 209 209
203 203 204 205 204 203 203 205 207 208 209 207 207 208 209 210 213 214 216 217 217 217 218 219 221 222 223 224 225 225 225 222 216 214 214 214 212 213 213 210 207 210
203 202 203 203 201 201 202 204 204 205 205 204 204 205 206 209 212 214 214 214 213 214 215 215 216 219 221 223 223 223 222 218 214 212 212 211 210 209 207 205 206 211
203 202 201 200 200 201 201 201 202 202 203 203 203 204 205 207 209 209 209 209 210 211 212 213 214 217 219 220 220 220 220 216 212 209 207 206 204 200 199 201 205 207
202 201 200 199 199 200 199 199 199 200 201 202 202 203 202 203 203 201 201 204 207 209 210 211 212 214 214 215 216 218 219 215 208 203 200 199 197 192 191 196 201 203
201 200 200 199 199 198 197 197 197 197 198 197 197 197 196 194 193 192 192 194 198 201 203 204 206 205 205 208 213 216 216 211 205 200 197 194 190 185 185 191 198 203
Height
781 783 784 786 788 789 791 794 795 797 798 798 800 801 803 805 807 809 811 813 815 816 817 819 820 821 822 824 825 826 827 828 829 830 830 831 832 832 833 834 834 835
778 780 782 783 785 787 789 791 793 794 794 796 797 799 801 803 805 807 809 811 812 814 815 816 818 819 821 822 823 824 825 826 827 828 829 830 831 831 832 833 833 833
775 777 778 780 781 783 786 788 790 791 791 793 795 797 799 800 803 804 806 808 810 811 813 814 816 817 819 820 821 822 823 825 826 827 828 829 829 830 831 832 832 832
771 773 775 777 778 781 783 785 787 787 789 790 792 794 796 798 800 802 804 806 807 809 810 812 814 815 817 818 819 820 821 823 824 825 826 827 828 829 830 831 831 831
767 770 772 774 776 778 781 782 783 784 786 787 789 792 793 795 797 799 801 803 804 806 808 810 812 813 815 816 817 818 819 820 821 823 824 825 826 827 828 829 829 829
763 766 768 771 773 775 777 778 779 781 783 784 786 789 791 792 794 796 797 799 801 803 805 807 809 810 812 813 814 815 816 817 819 820 821 822 823 825 825 826 826 827
758 761 765 768 770 772 774 775 776 778 779 782 783 785 787 789 791 792 794 796 798 800 802 803 805 807 809 810 811 813 814 815 816 817 818 819 820 822 822 823 824 824
753 757 761 764 766 768 770 771 773 774 776 779 780 782 784 785 787 789 791 793 795 797 798 800 801 803 805 807 808 810 811 812 813 814 815 816 817 818 818 820 821 822
749 752 756 760 762 764 766 767 769 771 773 775 776 778 780 782 784 786 788 790 791 793 794 796 798 799 801 803 804 806 807 808 810 811 812 813 813 813 815 817 819 820
744 747 752 755 757 759 761 763 766 768 770 771 773 775 776 778 781 783 785 786 787 789 790 792 794 796 798 799 800 802 803 805 806 807 808 809 809 810 812 815 817 818
739 743 746 749 752 754 756 759 762 764 766 767 769 771 773 775 777 779 781 782 782 784 786 788 790 792 793 795 797 798 800 801 803 804 805 806 807 808 811 813 815 816
735 738 740 744 747 749 751 754 757 760 761 763 765 766 769 771 773 775 776 777 778 780 782 784 786 788 789 791 793 795 797 800 801 802 803 803 805 807 809 811 812 814
729 732 734 737 741 743 746 750 752 755 757 758 760 762 765 767 768 770 771 773 775 777 779 780 782 785 786 788 791 792 795 797 798 799 800 801 803 805 806 808 810 812
724 726 728 731 735 738 742 745 747 750 752 754 756 758 760 762 763 765 767 770 772 774 776 778 780 782 783 785 788 789 791 792 794 796 797 798 800 802 803 806 807 809
718 721 723 727 730 734 737 740 742 745 747 750 752 754 755 757 759 762 765 767 770 772 774 775 776 777 779 781 783 785 786 788 791 793 794 795 797 799 801 803 805 807
714 717 719 722 725 728 731 734 738 741 743 746 747 749 751 754 756 759 762 764 767 768 771 772 772 773 775 777 778 780 783 786 789 791 792 793 795 796 798 800 802 804
709 712 715 717 719 722 726 729 733 736 738 741 743 745 748 750 754 756 759 761 763 765 766 767 768 770 771 773 775 778 782 784 786 786 787 789 792 793 795 797 799 801
704 707 709 712 714 717 720 724 728 731 734 737 739 741 745 747 750 753 755 757 760 761 762 763 764 765 767 769 773 776 779 780 781 782 783 786 788 790 793 795 796 799
699 701 704 706 708 711 715 720 724 727 729 732 735 739 742 744 747 749 751 754 756 757 758 759 760 761 764 767 770 772 775 776 777 779 782 784 785 787 790 792 794 797
694 696 699 701 704 708 712 716 720 722 725 730 733 736 739 741 744 746 748 750 751 752 754 755 757 759 761 765 767 769 772 773 775 777 779 781 782 784 788 790 792 794
689 691 694 697 701 705 709 713 716 719 723 727 731 733 736 738 741 743 745 746 747 749 751 753 754 756 759 762 764 767 769 771 773 774 776 778 780 782 784 786 789 792
684 687 690 693 698 702 706 709 712 716 720 724 728 731 733 735 738 739 740 742 744 747 749 750 752 754 757 759 762 765 767 769 771 772 774 775 777 779 781 783 786 790
679 682 686 690 695 698 702 705 709 713 717 721 725 728 729 731 733 734 736 739 741 744 745 747 749 751 754 757 759 762 764 766 768 770 771 773 774 776 779 781 784 787
674 678 682 687 691 694 698 702 706 711 714 717 720 723 724 727 729 731 733 736 738 740 741 744 746 749 752 754 756 758 759 761 764 766 768 771 772 774 777 780 783 785
671 675 679 683 687 691 695 699 703 707 711 713 716 718 721 723 726 728 731 732 735 737 739 742 744 747 749 751 753 754 756 758 760 763 766 768 770 773 776 779 781 784
668 673 676 680 684 688 692 697 700 704 707 710 713 716 718 721 723 725 728 730 733 735 737 740 743 745 747 749 751 753 755 757 759 761 764 766 768 771 773 777 780 782